{"data":{"norad_id":57415,"intl_designator":"2023-102M","name":"STARLINK-30208","alt_names":[],"object_type":"PAYLOAD","status":"ACTIVE","operator":null,"country":"US","launch_date":"2023-07-20","launch_site_code":"AFWTR","launch_vehicle":null,"mission":null,"orbit_class":"UNKNOWN","rcs_meters":null,"size_class":null,"mass_kg":null,"dimensions":null,"purposes":["comms"],"wikipedia_slug":null,"has_3d_model":false,"image_url":null,"decayed_at":null,"tle_current":{"epoch":"2026-05-25T03:30:17.314272Z","epoch_age_seconds":59043,"freshness":"FRESH","line1":"1 57415U 23102M   26145.14603373  .00000606  00000+0  31554-4 0  9998","line2":"2 57415  43.0043 176.7338 0001720 284.2295  75.8366 15.27580237157889","mean_motion":15.27580237,"eccentricity":0.000172,"inclination_deg":43.0043,"raan_deg":176.7338,"arg_perigee_deg":284.2295,"mean_anomaly_deg":75.8366,"bstar":3.1554e-5,"rev_number":15788,"period_min":94.266734088417,"perigee_km":481.86826249003,"apogee_km":484.22851026294,"semimajor_km":6861.1853863765,"source":"CELESTRAK","updated_at":"2026-05-25T13:38:18.317577Z"}}}